Weather History for KLSV - September, 2013

Change the Weather History Date:

Thursday, September 19, 2013

  Actual Average (KLAS) Record (KLAS)
Temperature  
Mean Temperature 82 °F 81 °F  
Max Temperature 93 °F 93 °F 104 °F (1951)
Min Temperature 72 °F 70 °F 47 °F (1965)
Degree Days  
Heating Degree Days 0 0  
Month to date heating degree days 0  
Since 1 July heating degree days 0  
Cooling Degree Days 18 16  
Month to date cooling degree days 376  
Year to date cooling degree days 3225  
Growing Degree Days 32 (Base 50)    
Moisture  
Dew Point 31 °F    
Average Humidity 16    
Maximum Humidity 23    
Minimum Humidity 9    
Precipitation  
Precipitation 0.00 in 0.01 in 0.47 in (1952)
Month to date precipitation 0.18  
Year to date precipitation 2.99  
Snow  
Snow 0.00 in 0.00 in 0.00 in ()
Month to date snowfall 0.0  
Since 1 July snowfall 0.0  
Since 1 September snowfall 0.0  
Snow Depth -    
Sea Level Pressure  
Sea Level Pressure 29.79 in    
Wind  
Wind Speed 9 mph (ENE)    
Max Wind Speed 20 mph    
Max Gust Speed 24 mph    
Visibility 10 miles    
Events      
T = Trace of Precipitation, MM = Missing Value Source: NWS Daily Summary

Daily Weather History Graph

Daily Weather History Graph

Search for Another Location

Airport or City:

Trip Planner

Search our weather history database for the weather conditions in past years. The results will help you decide how hot, cold, wet, or windy it might be!

Date:

Astronomy

Sep. 19, 2013 Rise Set
Actual Time 6:25 AM PDT 6:40 PM PDT
Civil Twilight 6:00 AM PDT 7:06 PM PDT
Nautical Twilight 5:30 AM PDT 7:36 PM PDT
Astronomical Twilight 4:59 AM PDT 8:07 PM PDT
Moon 6:44 PM PDT (9/19) 6:38 AM PDT (9/19)
Length of Visible Light 13h 06m
Length of Day
12h 15m
Full, 100% of the Moon is Illuminated
Sep 19
Full
Sep 26
Last Quarter
Oct 4
New
Oct 11
First Quarter
Oct 18
Full

Hourly Weather History & Observations

Time (PDT) Temp. Dew Point Humidity Pressure Visibility Wind Dir Wind Speed Gust Speed Precip Events Conditions
12:58 AM 75.9 °F 32.4 °F 20% 29.71 in 10.0 mi SE 2.3 mph - N/A   Clear
1:58 AM 83.3 °F 25.0 °F 12% 29.73 in 10.0 mi NNW 8.1 mph - N/A   Clear
2:51 AM 82.4 °F 32.0 °F 16% 29.80 in 10.0 mi North 11.5 mph 19.6 mph N/A   Clear
2:58 AM 82.2 °F 31.3 °F 16% 29.73 in 10.0 mi NE 13.8 mph 20.7 mph N/A   Clear
3:58 AM 78.3 °F 31.8 °F 18% 29.74 in 10.0 mi ENE 6.9 mph - N/A   Clear
4:58 AM 76.6 °F 31.8 °F 19% 29.75 in 10.0 mi NNE 2.3 mph - N/A   Clear
5:58 AM 72.5 °F 31.6 °F 22% 29.78 in 10.0 mi SSW 4.6 mph - N/A   Clear
6:58 AM 76.5 °F 35.4 °F 23% 29.87 in 10.0 mi East 10.4 mph - N/A   Clear
7:58 AM 77.4 °F 36.5 °F 23% 29.88 in 10.0 mi NE 9.2 mph - N/A   Clear
8:58 AM 80.6 °F 36.5 °F 21% 29.89 in 10.0 mi ENE 11.5 mph - N/A   Clear
9:58 AM 84.0 °F 35.6 °F 18% 29.83 in 10.0 mi East 17.3 mph - N/A   Clear
10:00 AM 84.2 °F 35.6 °F 18% 29.90 in 10.0 mi NE 17.3 mph 23.0 mph N/A   Clear
10:01 AM 84.2 °F 35.6 °F 18% 29.90 in 10.0 mi East 19.6 mph - N/A   Clear
10:41 AM 86.0 °F 35.6 °F 17% 29.89 in 10.0 mi NNE 18.4 mph - N/A   Clear
10:58 AM 86.2 °F 35.6 °F 16% 29.83 in 10.0 mi NE 12.7 mph 21.9 mph N/A   Clear
11:24 AM 87.8 °F 35.6 °F 16% 29.88 in 10.0 mi ENE 17.3 mph 24.2 mph N/A   Clear
11:58 AM 88.2 °F 35.6 °F 15% 29.81 in 10.0 mi East 11.5 mph 19.6 mph N/A   Clear
12:58 PM 90.0 °F 33.4 °F 13% 29.80 in 10.0 mi ESE 11.5 mph - N/A   Clear
1:58 PM 92.3 °F 31.1 °F 11% 29.75 in 10.0 mi East 8.1 mph 17.3 mph N/A   Clear
2:58 PM 92.7 °F 29.1 °F 10% 29.74 in 10.0 mi East 6.9 mph - N/A   Clear
3:58 PM 93.2 °F 27.0 °F 9% 29.72 in 10.0 mi Variable 3.5 mph - N/A   Clear
4:58 PM 92.7 °F 26.6 °F 9% 29.71 in 10.0 mi ENE 9.2 mph - N/A   Clear
5:58 PM 91.9 °F 26.1 °F 9% 29.70 in 10.0 mi NE 11.5 mph - N/A   Clear
6:56 PM 87.8 °F 26.6 °F 11% 29.78 in 10.0 mi ENE 5.8 mph - N/A   Clear
7:56 PM 82.4 °F 28.4 °F 14% 29.79 in 10.0 mi ENE 6.9 mph - N/A   Clear
8:56 PM 80.6 °F 26.6 °F 14% 29.80 in 10.0 mi ENE 4.6 mph - N/A   Clear
9:56 PM 77.0 °F 28.4 °F 17% 29.81 in 10.0 mi Variable 4.6 mph - N/A   Clear
10:58 PM 78.1 °F 27.3 °F 15% 29.75 in 10.0 mi NNE 5.8 mph - N/A   Clear
11:58 PM 75.7 °F 28.9 °F 18% 29.75 in 10.0 mi East 6.9 mph - N/A   Clear